owner,sensor,date,latitude,longitude,air_temperature,qcFlag 
LUMCON,ioos:station:LUMCON:101:1,2009-03-01T00:00:00Z,29.2533,-90.6633,12.7,11111222 
LUMCON,ioos:station:LUMCON:101:1,2009-03-01T01:00:00Z,29.2533,-90.6633,12.2,11111222 
LUMCON,ioos:station:LUMCON:101:1,2009-03-01T02:00:00Z,29.2533,-90.6633,11.6,11111222 
LUMCON,ioos:station:LUMCON:101:1,2009-03-01T03:00:00Z,29.2533,-90.6633,11.0,11111222 
LUMCON,ioos:station:LUMCON:101:1,2009-03-01T04:00:00Z,29.2533,-90.6633,10.3,11111222 
LUMCON,ioos:station:LUMCON:101:1,2009-03-01T05:00:00Z,29.2533,-90.6633,9.9,11111222 
LUMCON,ioos:station:LUMCON:101:1,2009-03-01T06:00:00Z,29.2533,-90.6633,9.0,11111222 
LUMCON,ioos:station:LUMCON:101:1,2009-03-01T07:00:00Z,29.2533,-90.6633,7.7,11111222 
LUMCON,ioos:station:LUMCON:101:1,2009-03-01T08:00:00Z,29.2533,-90.6633,6.4,11111222 
LUMCON,ioos:station:LUMCON:101:1,2009-03-01T09:00:00Z,29.2533,-90.6633,5.6,11111222 
LUMCON,ioos:station:LUMCON:101:1,2009-03-01T10:00:00Z,29.2533,-90.6633,4.2,11111222 
LUMCON,ioos:station:LUMCON:101:1,2009-03-01T11:00:00Z,29.2533,-90.6633,3.3,11111222 
LUMCON,ioos:station:LUMCON:101:1,2009-03-01T12:00:00Z,29.2533,-90.6633,2.6,11111222 
LUMCON,ioos:station:LUMCON:101:1,2009-03-01T13:00:00Z,29.2533,-90.6633,2.4,11111222 
LUMCON,ioos:station:LUMCON:101:1,2009-03-01T14:00:00Z,29.2533,-90.6633,2.5,11111222 
LUMCON,ioos:station:LUMCON:101:1,2009-03-01T15:00:00Z,29.2533,-90.6633,2.7,11111222 
LUMCON,ioos:station:LUMCON:101:1,2009-03-01T16:00:00Z,29.2533,-90.6633,3.7,11111222 
LUMCON,ioos:station:LUMCON:101:1,2009-03-01T17:00:00Z,29.2533,-90.6633,5.2,11111222 
LUMCON,ioos:station:LUMCON:101:1,2009-03-01T18:00:00Z,29.2533,-90.6633,6.9,11111222 
LUMCON,ioos:station:LUMCON:101:1,2009-03-01T19:00:00Z,29.2533,-90.6633,8.7,11111222 
LUMCON,ioos:station:LUMCON:101:1,2009-03-01T20:00:00Z,29.2533,-90.6633,9.4,11111222 
LUMCON,ioos:station:LUMCON:101:1,2009-03-01T21:00:00Z,29.2533,-90.6633,10.4,11111222 
LUMCON,ioos:station:LUMCON:101:1,2009-03-01T22:00:00Z,29.2533,-90.6633,11.3,11111222 
LUMCON,ioos:station:LUMCON:101:1,2009-03-01T23:00:00Z,29.2533,-90.6633,11.4,11111222 
LUMCON,ioos:station:LUMCON:101:1,2009-03-02T00:00:00Z,29.2533,-90.6633,10.6,11111222 
LUMCON,ioos:station:LUMCON:101:1,2009-03-02T01:00:00Z,29.2533,-90.6633,9.9,11111222 
LUMCON,ioos:station:LUMCON:101:1,2009-03-02T02:00:00Z,29.2533,-90.6633,9.4,11111222 
LUMCON,ioos:station:LUMCON:101:1,2009-03-02T03:00:00Z,29.2533,-90.6633,8.8,11111222 
LUMCON,ioos:station:LUMCON:101:1,2009-03-02T04:00:00Z,29.2533,-90.6633,8.3,11111222 
LUMCON,ioos:station:LUMCON:101:1,2009-03-02T05:00:00Z,29.2533,-90.6633,7.6,11111222 
LUMCON,ioos:station:LUMCON:101:1,2009-03-02T06:00:00Z,29.2533,-90.6633,7.2,11111222 
LUMCON,ioos:station:LUMCON:101:1,2009-03-02T07:00:00Z,29.2533,-90.6633,7.1,11111222 
LUMCON,ioos:station:LUMCON:101:1,2009-03-02T08:00:00Z,29.2533,-90.6633,6.6,11111222 
LUMCON,ioos:station:LUMCON:101:1,2009-03-02T09:00:00Z,29.2533,-90.6633,5.6,11111222 
LUMCON,ioos:station:LUMCON:101:1,2009-03-02T10:00:00Z,29.2533,-90.6633,5.0,11111222 
LUMCON,ioos:station:LUMCON:101:1,2009-03-02T11:00:00Z,29.2533,-90.6633,4.4,11111222 
LUMCON,ioos:station:LUMCON:101:1,2009-03-02T12:00:00Z,29.2533,-90.6633,3.9,11111222 
LUMCON,ioos:station:LUMCON:101:1,2009-03-02T13:00:00Z,29.2533,-90.6633,4.4,11111222 
LUMCON,ioos:station:LUMCON:101:1,2009-03-02T14:00:00Z,29.2533,-90.6633,5.3,11111222 
LUMCON,ioos:station:LUMCON:101:1,2009-03-02T15:00:00Z,29.2533,-90.6633,5.9,11111222 
LUMCON,ioos:station:LUMCON:101:1,2009-03-02T16:00:00Z,29.2533,-90.6633,7.0,11111222 
LUMCON,ioos:station:LUMCON:101:1,2009-03-02T17:00:00Z,29.2533,-90.6633,8.0,11111222 
LUMCON,ioos:station:LUMCON:101:1,2009-03-02T18:00:00Z,29.2533,-90.6633,9.6,11111222 
LUMCON,ioos:station:LUMCON:101:1,2009-03-02T19:00:00Z,29.2533,-90.6633,11.0,11111222 
LUMCON,ioos:station:LUMCON:101:1,2009-03-02T20:00:00Z,29.2533,-90.6633,11.9,11111222 
LUMCON,ioos:station:LUMCON:101:1,2009-03-02T21:00:00Z,29.2533,-90.6633,12.46,1111122 
LUMCON,ioos:station:LUMCON:101:1,2009-03-02T22:00:00Z,29.2533,-90.6633,12.92,1111122 
LUMCON,ioos:station:LUMCON:101:1,2009-03-02T23:00:00Z,29.2533,-90.6633,12.98,1111122 
LUMCON,ioos:station:LUMCON:101:1,2009-03-03T00:00:00Z,29.2533,-90.6633,8.2,1111122 
LUMCON,ioos:station:LUMCON:101:1,2009-03-03T01:00:00Z,29.2533,-90.6633,10.71,1111122 
LUMCON,ioos:station:LUMCON:101:1,2009-03-03T02:00:00Z,29.2533,-90.6633,10.05,1111122 
LUMCON,ioos:station:LUMCON:101:1,2009-03-03T03:00:00Z,29.2533,-90.6633,10.03,1111122 
LUMCON,ioos:station:LUMCON:101:1,2009-03-03T04:00:00Z,29.2533,-90.6633,10.14,1111122 
LUMCON,ioos:station:LUMCON:101:1,2009-03-03T05:00:00Z,29.2533,-90.6633,9.75,1111122 
LUMCON,ioos:station:LUMCON:101:1,2009-03-03T06:00:00Z,29.2533,-90.6633,8.82,1111122 
LUMCON,ioos:station:LUMCON:101:1,2009-03-03T07:00:00Z,29.2533,-90.6633,7.98,1111122 
LUMCON,ioos:station:LUMCON:101:1,2009-03-03T08:00:00Z,29.2533,-90.6633,7.29,1111122 
LUMCON,ioos:station:LUMCON:101:1,2009-03-03T09:00:00Z,29.2533,-90.6633,6.736,1111122 
LUMCON,ioos:station:LUMCON:101:1,2009-03-03T10:00:00Z,29.2533,-90.6633,6.387,1111122 
LUMCON,ioos:station:LUMCON:101:1,2009-03-03T11:00:00Z,29.2533,-90.6633,6.219,1111122 
LUMCON,ioos:station:LUMCON:101:1,2009-03-03T12:00:00Z,29.2533,-90.6633,6.134,1111122 
LUMCON,ioos:station:LUMCON:101:1,2009-03-03T13:00:00Z,29.2533,-90.6633,5.965,1111122 
LUMCON,ioos:station:LUMCON:101:1,2009-03-03T14:00:00Z,29.2533,-90.6633,6.526,1111122 
LUMCON,ioos:station:LUMCON:101:1,2009-03-03T15:00:00Z,29.2533,-90.6633,7.57,1111122 
LUMCON,ioos:station:LUMCON:101:1,2009-03-03T16:00:00Z,29.2533,-90.6633,8.81,1111122 
LUMCON,ioos:station:LUMCON:101:1,2009-03-03T17:00:00Z,29.2533,-90.6633,10.11,1111122 
LUMCON,ioos:station:LUMCON:101:1,2009-03-03T18:00:00Z,29.2533,-90.6633,11.06,1111122 
LUMCON,ioos:station:LUMCON:101:1,2009-03-03T19:00:00Z,29.2533,-90.6633,11.91,1111122 
LUMCON,ioos:station:LUMCON:101:1,2009-03-03T20:00:00Z,29.2533,-90.6633,12.31,1111122 
LUMCON,ioos:station:LUMCON:101:1,2009-03-03T21:00:00Z,29.2533,-90.6633,12.34,1111122 
LUMCON,ioos:station:LUMCON:101:1,2009-03-03T22:00:00Z,29.2533,-90.6633,12.49,1111122 
LUMCON,ioos:station:LUMCON:101:1,2009-03-03T23:00:00Z,29.2533,-90.6633,12.41,1111122 
LUMCON,ioos:station:LUMCON:101:1,2009-03-04T00:00:00Z,29.2533,-90.6633,9.32,1111122 
LUMCON,ioos:station:LUMCON:101:1,2009-03-04T01:00:00Z,29.2533,-90.6633,11.26,1111122 
LUMCON,ioos:station:LUMCON:101:1,2009-03-04T02:00:00Z,29.2533,-90.6633,11.03,1111122 
LUMCON,ioos:station:LUMCON:101:1,2009-03-04T03:00:00Z,29.2533,-90.6633,10.9,1111122 
LUMCON,ioos:station:LUMCON:101:1,2009-03-04T04:00:00Z,29.2533,-90.6633,10.9,1111122 
LUMCON,ioos:station:LUMCON:101:1,2009-03-04T05:00:00Z,29.2533,-90.6633,11.0,1111122 
LUMCON,ioos:station:LUMCON:101:1,2009-03-04T06:00:00Z,29.2533,-90.6633,11.17,1111122 
LUMCON,ioos:station:LUMCON:101:1,2009-03-04T07:00:00Z,29.2533,-90.6633,10.91,1111122 
LUMCON,ioos:station:LUMCON:101:1,2009-03-04T08:00:00Z,29.2533,-90.6633,10.66,1111122 
LUMCON,ioos:station:LUMCON:101:1,2009-03-04T09:00:00Z,29.2533,-90.6633,10.01,1111122 
LUMCON,ioos:station:LUMCON:101:1,2009-03-04T10:00:00Z,29.2533,-90.6633,10.03,1111122 
LUMCON,ioos:station:LUMCON:101:1,2009-03-04T11:00:00Z,29.2533,-90.6633,10.5,1111122 
LUMCON,ioos:station:LUMCON:101:1,2009-03-04T12:00:00Z,29.2533,-90.6633,10.65,1111122 
LUMCON,ioos:station:LUMCON:101:1,2009-03-04T13:00:00Z,29.2533,-90.6633,10.63,1111122 
LUMCON,ioos:station:LUMCON:101:1,2009-03-04T14:00:00Z,29.2533,-90.6633,12.13,1111122 
LUMCON,ioos:station:LUMCON:101:1,2009-03-04T15:00:00Z,29.2533,-90.6633,13.72,1111122 
LUMCON,ioos:station:LUMCON:101:1,2009-03-04T16:00:00Z,29.2533,-90.6633,15.7,1111122 
LUMCON,ioos:station:LUMCON:101:1,2009-03-04T17:00:00Z,29.2533,-90.6633,17.1,1111122 
LUMCON,ioos:station:LUMCON:101:1,2009-03-04T18:00:00Z,29.2533,-90.6633,17.61,1111122 
LUMCON,ioos:station:LUMCON:101:1,2009-03-04T19:00:00Z,29.2533,-90.6633,17.84,1111122 
LUMCON,ioos:station:LUMCON:101:1,2009-03-04T20:00:00Z,29.2533,-90.6633,17.94,1111122 
LUMCON,ioos:station:LUMCON:101:1,2009-03-04T21:00:00Z,29.2533,-90.6633,18.15,1111122 
LUMCON,ioos:station:LUMCON:101:1,2009-03-04T22:00:00Z,29.2533,-90.6633,18.05,1111122 
LUMCON,ioos:station:LUMCON:101:1,2009-03-04T23:00:00Z,29.2533,-90.6633,17.6,1111122 
LUMCON,ioos:station:LUMCON:101:1,2009-03-05T00:00:00Z,29.2533,-90.6633,13.44,1111122 
LUMCON,ioos:station:LUMCON:101:1,2009-03-05T01:00:00Z,29.2533,-90.6633,16.72,1111122 
LUMCON,ioos:station:LUMCON:101:1,2009-03-05T02:00:00Z,29.2533,-90.6633,16.96,1111122 
LUMCON,ioos:station:LUMCON:101:1,2009-03-05T03:00:00Z,29.2533,-90.6633,16.88,1111122 
LUMCON,ioos:station:LUMCON:101:1,2009-03-05T04:00:00Z,29.2533,-90.6633,16.54,1111122 
LUMCON,ioos:station:LUMCON:101:1,2009-03-05T05:00:00Z,29.2533,-90.6633,16.68,1111122 
LUMCON,ioos:station:LUMCON:101:1,2009-03-05T06:00:00Z,29.2533,-90.6633,16.65,1111122 
LUMCON,ioos:station:LUMCON:101:1,2009-03-05T07:00:00Z,29.2533,-90.6633,16.66,1111122 
LUMCON,ioos:station:LUMCON:101:1,2009-03-05T08:00:00Z,29.2533,-90.6633,16.7,1111122 
LUMCON,ioos:station:LUMCON:101:1,2009-03-05T09:00:00Z,29.2533,-90.6633,16.41,1111122 
LUMCON,ioos:station:LUMCON:101:1,2009-03-05T10:00:00Z,29.2533,-90.6633,16.18,1111122 
LUMCON,ioos:station:LUMCON:101:1,2009-03-05T11:00:00Z,29.2533,-90.6633,16.02,1111122 
LUMCON,ioos:station:LUMCON:101:1,2009-03-05T12:00:00Z,29.2533,-90.6633,16.02,1111122 
LUMCON,ioos:station:LUMCON:101:1,2009-03-05T13:00:00Z,29.2533,-90.6633,16.49,1111122 
LUMCON,ioos:station:LUMCON:101:1,2009-03-05T14:00:00Z,29.2533,-90.6633,17.11,1111122 
LUMCON,ioos:station:LUMCON:101:1,2009-03-05T15:00:00Z,29.2533,-90.6633,18.17,1111122 
LUMCON,ioos:station:LUMCON:101:1,2009-03-05T16:00:00Z,29.2533,-90.6633,18.62,1111122 
LUMCON,ioos:station:LUMCON:101:1,2009-03-05T17:00:00Z,29.2533,-90.6633,19.37,1111122 
LUMCON,ioos:station:LUMCON:101:1,2009-03-05T18:00:00Z,29.2533,-90.6633,19.62,1111122 
LUMCON,ioos:station:LUMCON:101:1,2009-03-05T19:00:00Z,29.2533,-90.6633,18.96,1111122 
LUMCON,ioos:station:LUMCON:101:1,2009-03-05T20:00:00Z,29.2533,-90.6633,19.19,1111122 
LUMCON,ioos:station:LUMCON:101:1,2009-03-05T21:00:00Z,29.2533,-90.6633,19.41,1111122 
LUMCON,ioos:station:LUMCON:101:1,2009-03-05T22:00:00Z,29.2533,-90.6633,19.2,1111122 
LUMCON,ioos:station:LUMCON:101:1,2009-03-05T23:00:00Z,29.2533,-90.6633,19.08,1111122 
LUMCON,ioos:station:LUMCON:101:1,2009-03-06T00:00:00Z,29.2533,-90.6633,17.59,1111122 
LUMCON,ioos:station:LUMCON:101:1,2009-03-06T01:00:00Z,29.2533,-90.6633,18.12,1111122 
LUMCON,ioos:station:LUMCON:101:1,2009-03-06T02:00:00Z,29.2533,-90.6633,17.93,1111122 
LUMCON,ioos:station:LUMCON:101:1,2009-03-06T03:00:00Z,29.2533,-90.6633,18.05,1111122 
LUMCON,ioos:station:LUMCON:101:1,2009-03-06T04:00:00Z,29.2533,-90.6633,18.05,1111122 
LUMCON,ioos:station:LUMCON:101:1,2009-03-06T05:00:00Z,29.2533,-90.6633,18.01,1111122 
LUMCON,ioos:station:LUMCON:101:1,2009-03-06T06:00:00Z,29.2533,-90.6633,17.95,1111122 
LUMCON,ioos:station:LUMCON:101:1,2009-03-06T07:00:00Z,29.2533,-90.6633,17.88,1111122 
LUMCON,ioos:station:LUMCON:101:1,2009-03-06T08:00:00Z,29.2533,-90.6633,17.72,1111122 
LUMCON,ioos:station:LUMCON:101:1,2009-03-06T09:00:00Z,29.2533,-90.6633,17.35,1111122 
LUMCON,ioos:station:LUMCON:101:1,2009-03-06T10:00:00Z,29.2533,-90.6633,17.13,1111122 
LUMCON,ioos:station:LUMCON:101:1,2009-03-06T11:00:00Z,29.2533,-90.6633,17.41,1111122 
LUMCON,ioos:station:LUMCON:101:1,2009-03-06T12:00:00Z,29.2533,-90.6633,17.47,1111122 
LUMCON,ioos:station:LUMCON:101:1,2009-03-06T13:00:00Z,29.2533,-90.6633,17.27,1111122 
LUMCON,ioos:station:LUMCON:101:1,2009-03-06T14:00:00Z,29.2533,-90.6633,17.99,1111122 
LUMCON,ioos:station:LUMCON:101:1,2009-03-06T15:00:00Z,29.2533,-90.6633,18.94,1111122 
LUMCON,ioos:station:LUMCON:101:1,2009-03-06T16:00:00Z,29.2533,-90.6633,20.16,1111122 
LUMCON,ioos:station:LUMCON:101:1,2009-03-06T17:00:00Z,29.2533,-90.6633,20.92,1111122 
LUMCON,ioos:station:LUMCON:101:1,2009-03-06T18:00:00Z,29.2533,-90.6633,21.7,1111122 
LUMCON,ioos:station:LUMCON:101:1,2009-03-06T19:00:00Z,29.2533,-90.6633,22.04,1111122 
LUMCON,ioos:station:LUMCON:101:1,2009-03-06T20:00:00Z,29.2533,-90.6633,22.13,1111122 
LUMCON,ioos:station:LUMCON:101:1,2009-03-06T21:00:00Z,29.2533,-90.6633,21.87,1111122 
LUMCON,ioos:station:LUMCON:101:1,2009-03-06T22:00:00Z,29.2533,-90.6633,22.03,1111122 
LUMCON,ioos:station:LUMCON:101:1,2009-03-06T23:00:00Z,29.2533,-90.6633,21.48,1111122 
LUMCON,ioos:station:LUMCON:101:1,2009-03-07T00:00:00Z,29.2533,-90.6633,19.18,1111122 
LUMCON,ioos:station:LUMCON:101:1,2009-03-07T01:00:00Z,29.2533,-90.6633,20.26,1111122 
LUMCON,ioos:station:LUMCON:101:1,2009-03-07T02:00:00Z,29.2533,-90.6633,19.78,1111122 
LUMCON,ioos:station:LUMCON:101:1,2009-03-07T03:00:00Z,29.2533,-90.6633,19.66,1111122 
LUMCON,ioos:station:LUMCON:101:1,2009-03-07T04:00:00Z,29.2533,-90.6633,19.62,1111122 
LUMCON,ioos:station:LUMCON:101:1,2009-03-07T05:00:00Z,29.2533,-90.6633,19.73,1111122 
LUMCON,ioos:station:LUMCON:101:1,2009-03-07T06:00:00Z,29.2533,-90.6633,19.45,1111122 
LUMCON,ioos:station:LUMCON:101:1,2009-03-07T07:00:00Z,29.2533,-90.6633,19.63,1111122 
LUMCON,ioos:station:LUMCON:101:1,2009-03-07T08:00:00Z,29.2533,-90.6633,19.54,1111122 
LUMCON,ioos:station:LUMCON:101:1,2009-03-07T09:00:00Z,29.2533,-90.6633,19.44,1111122 
LUMCON,ioos:station:LUMCON:101:1,2009-03-07T10:00:00Z,29.2533,-90.6633,19.32,1111122 
LUMCON,ioos:station:LUMCON:101:1,2009-03-07T11:00:00Z,29.2533,-90.6633,19.15,1111122 
LUMCON,ioos:station:LUMCON:101:1,2009-03-07T12:00:00Z,29.2533,-90.6633,18.93,1111122 
LUMCON,ioos:station:LUMCON:101:1,2009-03-07T13:00:00Z,29.2533,-90.6633,18.94,1111122 
LUMCON,ioos:station:LUMCON:101:1,2009-03-07T14:00:00Z,29.2533,-90.6633,19.5,1111122 
LUMCON,ioos:station:LUMCON:101:1,2009-03-07T15:00:00Z,29.2533,-90.6633,20.19,1111122 
LUMCON,ioos:station:LUMCON:101:1,2009-03-07T16:00:00Z,29.2533,-90.6633,20.87,1111122 
LUMCON,ioos:station:LUMCON:101:1,2009-03-07T17:00:00Z,29.2533,-90.6633,21.13,1111122 
LUMCON,ioos:station:LUMCON:101:1,2009-03-07T18:00:00Z,29.2533,-90.6633,21.93,1111122 
LUMCON,ioos:station:LUMCON:101:1,2009-03-07T19:00:00Z,29.2533,-90.6633,21.99,1111122 
LUMCON,ioos:station:LUMCON:101:1,2009-03-07T20:00:00Z,29.2533,-90.6633,22.12,1111122 
LUMCON,ioos:station:LUMCON:101:1,2009-03-07T21:00:00Z,29.2533,-90.6633,22.1,11111222 
LUMCON,ioos:station:LUMCON:101:1,2009-03-07T22:00:00Z,29.2533,-90.6633,22.01,1111122 
LUMCON,ioos:station:LUMCON:101:1,2009-03-07T23:00:00Z,29.2533,-90.6633,21.48,1111122 
LUMCON,ioos:station:LUMCON:101:1,2009-03-08T00:00:00Z,29.2533,-90.6633,20.32,1111122 
LUMCON,ioos:station:LUMCON:101:1,2009-03-08T01:00:00Z,29.2533,-90.6633,20.62,1111122 
LUMCON,ioos:station:LUMCON:101:1,2009-03-08T02:00:00Z,29.2533,-90.6633,20.58,1111122 
LUMCON,ioos:station:LUMCON:101:1,2009-03-08T03:00:00Z,29.2533,-90.6633,20.48,1111122 
LUMCON,ioos:station:LUMCON:101:1,2009-03-08T04:00:00Z,29.2533,-90.6633,20.47,1111122 
LUMCON,ioos:station:LUMCON:101:1,2009-03-08T05:00:00Z,29.2533,-90.6633,20.55,1111122 
LUMCON,ioos:station:LUMCON:101:1,2009-03-08T06:00:00Z,29.2533,-90.6633,20.34,1111122 
LUMCON,ioos:station:LUMCON:101:1,2009-03-08T07:00:00Z,29.2533,-90.6633,20.23,1111122 
LUMCON,ioos:station:LUMCON:101:1,2009-03-08T08:00:00Z,29.2533,-90.6633,20.28,1111122 
LUMCON,ioos:station:LUMCON:101:1,2009-03-08T09:00:00Z,29.2533,-90.6633,20.33,1111122 
LUMCON,ioos:station:LUMCON:101:1,2009-03-08T10:00:00Z,29.2533,-90.6633,20.4,1111122 
LUMCON,ioos:station:LUMCON:101:1,2009-03-08T11:00:00Z,29.2533,-90.6633,20.21,1111122 
LUMCON,ioos:station:LUMCON:101:1,2009-03-08T12:00:00Z,29.2533,-90.6633,20.08,1111122 
LUMCON,ioos:station:LUMCON:101:1,2009-03-08T13:00:00Z,29.2533,-90.6633,20.18,1111122 
LUMCON,ioos:station:LUMCON:101:1,2009-03-08T14:00:00Z,29.2533,-90.6633,20.59,1111122 
LUMCON,ioos:station:LUMCON:101:1,2009-03-08T15:00:00Z,29.2533,-90.6633,21.42,1111122 
LUMCON,ioos:station:LUMCON:101:1,2009-03-08T16:00:00Z,29.2533,-90.6633,22.13,1111122 
LUMCON,ioos:station:LUMCON:101:1,2009-03-08T17:00:00Z,29.2533,-90.6633,23.47,1111122 
LUMCON,ioos:station:LUMCON:101:1,2009-03-08T18:00:00Z,29.2533,-90.6633,24.12,1111122 
LUMCON,ioos:station:LUMCON:101:1,2009-03-08T19:00:00Z,29.2533,-90.6633,24.2,1111122 
LUMCON,ioos:station:LUMCON:101:1,2009-03-08T20:00:00Z,29.2533,-90.6633,24.38,1111122 
LUMCON,ioos:station:LUMCON:101:1,2009-03-08T21:00:00Z,29.2533,-90.6633,24.28,1111122 
LUMCON,ioos:station:LUMCON:101:1,2009-03-08T22:00:00Z,29.2533,-90.6633,23.77,1111122 
LUMCON,ioos:station:LUMCON:101:1,2009-03-08T23:00:00Z,29.2533,-90.6633,23.13,1111122 
LUMCON,ioos:station:LUMCON:101:1,2009-03-09T00:00:00Z,29.2533,-90.6633,21.62,1111122 
LUMCON,ioos:station:LUMCON:101:1,2009-03-09T01:00:00Z,29.2533,-90.6633,22.0,1111122 
LUMCON,ioos:station:LUMCON:101:1,2009-03-09T02:00:00Z,29.2533,-90.6633,21.78,1111122 
LUMCON,ioos:station:LUMCON:101:1,2009-03-09T03:00:00Z,29.2533,-90.6633,21.64,1111122 
LUMCON,ioos:station:LUMCON:101:1,2009-03-09T04:00:00Z,29.2533,-90.6633,21.53,1111122 
LUMCON,ioos:station:LUMCON:101:1,2009-03-09T05:00:00Z,29.2533,-90.6633,21.36,1111122 
LUMCON,ioos:station:LUMCON:101:1,2009-03-09T06:00:00Z,29.2533,-90.6633,21.2,1111122 
LUMCON,ioos:station:LUMCON:101:1,2009-03-09T07:00:00Z,29.2533,-90.6633,21.08,1111122 
LUMCON,ioos:station:LUMCON:101:1,2009-03-09T08:00:00Z,29.2533,-90.6633,21.03,1111122 
LUMCON,ioos:station:LUMCON:101:1,2009-03-09T09:00:00Z,29.2533,-90.6633,20.93,1111122 
LUMCON,ioos:station:LUMCON:101:1,2009-03-09T10:00:00Z,29.2533,-90.6633,20.8,1111122 
LUMCON,ioos:station:LUMCON:101:1,2009-03-09T11:00:00Z,29.2533,-90.6633,20.81,1111122 
LUMCON,ioos:station:LUMCON:101:1,2009-03-09T12:00:00Z,29.2533,-90.6633,20.83,1111122 
LUMCON,ioos:station:LUMCON:101:1,2009-03-09T13:00:00Z,29.2533,-90.6633,20.93,1111122 
LUMCON,ioos:station:LUMCON:101:1,2009-03-09T14:00:00Z,29.2533,-90.6633,21.4,1111122 
LUMCON,ioos:station:LUMCON:101:1,2009-03-09T15:00:00Z,29.2533,-90.6633,21.99,1111122 
LUMCON,ioos:station:LUMCON:101:1,2009-03-09T16:00:00Z,29.2533,-90.6633,22.57,1111122 
LUMCON,ioos:station:LUMCON:101:1,2009-03-09T17:00:00Z,29.2533,-90.6633,22.89,1111122 
LUMCON,ioos:station:LUMCON:101:1,2009-03-09T18:00:00Z,29.2533,-90.6633,22.9,1111122 
LUMCON,ioos:station:LUMCON:101:1,2009-03-09T19:00:00Z,29.2533,-90.6633,23.24,1111122 
LUMCON,ioos:station:LUMCON:101:1,2009-03-09T20:00:00Z,29.2533,-90.6633,23.5,1111122 
LUMCON,ioos:station:LUMCON:101:1,2009-03-09T21:00:00Z,29.2533,-90.6633,23.51,1111122 
LUMCON,ioos:station:LUMCON:101:1,2009-03-09T22:00:00Z,29.2533,-90.6633,23.36,1111122 
LUMCON,ioos:station:LUMCON:101:1,2009-03-09T23:00:00Z,29.2533,-90.6633,23.15,1111122 
LUMCON,ioos:station:LUMCON:101:1,2009-03-10T00:00:00Z,29.2533,-90.6633,21.96,1111122 
LUMCON,ioos:station:LUMCON:101:1,2009-03-10T01:00:00Z,29.2533,-90.6633,21.89,1111122 
LUMCON,ioos:station:LUMCON:101:1,2009-03-10T02:00:00Z,29.2533,-90.6633,21.66,1111122 
LUMCON,ioos:station:LUMCON:101:1,2009-03-10T03:00:00Z,29.2533,-90.6633,21.45,1111122 
LUMCON,ioos:station:LUMCON:101:1,2009-03-10T04:00:00Z,29.2533,-90.6633,21.41,1111122 
LUMCON,ioos:station:LUMCON:101:1,2009-03-10T05:00:00Z,29.2533,-90.6633,21.48,1111122 
LUMCON,ioos:station:LUMCON:101:1,2009-03-10T06:00:00Z,29.2533,-90.6633,21.53,1111122 
LUMCON,ioos:station:LUMCON:101:1,2009-03-10T07:00:00Z,29.2533,-90.6633,21.45,1111122 
LUMCON,ioos:station:LUMCON:101:1,2009-03-10T08:00:00Z,29.2533,-90.6633,21.4,1111122 
LUMCON,ioos:station:LUMCON:101:1,2009-03-10T09:00:00Z,29.2533,-90.6633,21.33,1111122 
LUMCON,ioos:station:LUMCON:101:1,2009-03-10T10:00:00Z,29.2533,-90.6633,21.22,1111122 
LUMCON,ioos:station:LUMCON:101:1,2009-03-10T11:00:00Z,29.2533,-90.6633,21.26,1111122 
LUMCON,ioos:station:LUMCON:101:1,2009-03-10T12:00:00Z,29.2533,-90.6633,21.25,1111122 
LUMCON,ioos:station:LUMCON:101:1,2009-03-10T13:00:00Z,29.2533,-90.6633,21.24,1111122 
LUMCON,ioos:station:LUMCON:101:1,2009-03-10T14:00:00Z,29.2533,-90.6633,21.66,1111122 
LUMCON,ioos:station:LUMCON:101:1,2009-03-10T15:00:00Z,29.2533,-90.6633,22.06,1111122 
LUMCON,ioos:station:LUMCON:101:1,2009-03-10T16:00:00Z,29.2533,-90.6633,22.34,1111122 
LUMCON,ioos:station:LUMCON:101:1,2009-03-10T17:00:00Z,29.2533,-90.6633,22.59,1111122 
LUMCON,ioos:station:LUMCON:101:1,2009-03-10T18:00:00Z,29.2533,-90.6633,22.89,1111122 
LUMCON,ioos:station:LUMCON:101:1,2009-03-10T19:00:00Z,29.2533,-90.6633,22.95,1111122 
LUMCON,ioos:station:LUMCON:101:1,2009-03-10T20:00:00Z,29.2533,-90.6633,23.17,1111122 
LUMCON,ioos:station:LUMCON:101:1,2009-03-10T21:00:00Z,29.2533,-90.6633,23.05,1111122 
LUMCON,ioos:station:LUMCON:101:1,2009-03-10T22:00:00Z,29.2533,-90.6633,22.85,1111122 
LUMCON,ioos:station:LUMCON:101:1,2009-03-10T23:00:00Z,29.2533,-90.6633,22.79,1111122 
LUMCON,ioos:station:LUMCON:101:1,2009-03-11T00:00:00Z,29.2533,-90.6633,21.98,1111122 
LUMCON,ioos:station:LUMCON:101:1,2009-03-11T01:00:00Z,29.2533,-90.6633,22.34,1111122 
LUMCON,ioos:station:LUMCON:101:1,2009-03-11T02:00:00Z,29.2533,-90.6633,22.21,1111122 
LUMCON,ioos:station:LUMCON:101:1,2009-03-11T03:00:00Z,29.2533,-90.6633,22.15,1111122 
LUMCON,ioos:station:LUMCON:101:1,2009-03-11T04:00:00Z,29.2533,-90.6633,22.08,1111122 
LUMCON,ioos:station:LUMCON:101:1,2009-03-11T05:00:00Z,29.2533,-90.6633,21.87,1111122 
LUMCON,ioos:station:LUMCON:101:1,2009-03-11T06:00:00Z,29.2533,-90.6633,21.81,1111122 
LUMCON,ioos:station:LUMCON:101:1,2009-03-11T07:00:00Z,29.2533,-90.6633,21.66,1111122 
LUMCON,ioos:station:LUMCON:101:1,2009-03-11T08:00:00Z,29.2533,-90.6633,21.55,1111122 
LUMCON,ioos:station:LUMCON:101:1,2009-03-11T09:00:00Z,29.2533,-90.6633,21.43,1111122 
LUMCON,ioos:station:LUMCON:101:1,2009-03-11T10:00:00Z,29.2533,-90.6633,21.42,1111122 
LUMCON,ioos:station:LUMCON:101:1,2009-03-11T11:00:00Z,29.2533,-90.6633,21.42,1111122 
LUMCON,ioos:station:LUMCON:101:1,2009-03-11T12:00:00Z,29.2533,-90.6633,21.5,1111122 
LUMCON,ioos:station:LUMCON:101:1,2009-03-11T13:00:00Z,29.2533,-90.6633,21.65,1111122 
LUMCON,ioos:station:LUMCON:101:1,2009-03-11T14:00:00Z,29.2533,-90.6633,22.03,1111122 
LUMCON,ioos:station:LUMCON:101:1,2009-03-11T15:00:00Z,29.2533,-90.6633,22.36,1111122 
LUMCON,ioos:station:LUMCON:101:1,2009-03-11T16:00:00Z,29.2533,-90.6633,22.77,1111122 
LUMCON,ioos:station:LUMCON:101:1,2009-03-11T17:00:00Z,29.2533,-90.6633,22.96,1111122 
LUMCON,ioos:station:LUMCON:101:1,2009-03-11T18:00:00Z,29.2533,-90.6633,22.97,1111122 
LUMCON,ioos:station:LUMCON:101:1,2009-03-11T19:00:00Z,29.2533,-90.6633,23.37,1111122 
LUMCON,ioos:station:LUMCON:101:1,2009-03-11T20:00:00Z,29.2533,-90.6633,23.38,1111122 
LUMCON,ioos:station:LUMCON:101:1,2009-03-11T21:00:00Z,29.2533,-90.6633,23.5,1111122 
LUMCON,ioos:station:LUMCON:101:1,2009-03-11T22:00:00Z,29.2533,-90.6633,23.46,1111122 
LUMCON,ioos:station:LUMCON:101:1,2009-03-11T23:00:00Z,29.2533,-90.6633,23.13,1111122 
LUMCON,ioos:station:LUMCON:101:1,2009-03-12T00:00:00Z,29.2533,-90.6633,22.33,1111122 
LUMCON,ioos:station:LUMCON:101:1,2009-03-12T01:00:00Z,29.2533,-90.6633,22.65,1111122 
LUMCON,ioos:station:LUMCON:101:1,2009-03-12T02:00:00Z,29.2533,-90.6633,22.2,1111122 
LUMCON,ioos:station:LUMCON:101:1,2009-03-12T03:00:00Z,29.2533,-90.6633,21.96,1111122 
LUMCON,ioos:station:LUMCON:101:1,2009-03-12T04:00:00Z,29.2533,-90.6633,21.8,1111122 
LUMCON,ioos:station:LUMCON:101:1,2009-03-12T05:00:00Z,29.2533,-90.6633,21.63,1111122 
LUMCON,ioos:station:LUMCON:101:1,2009-03-12T06:00:00Z,29.2533,-90.6633,21.41,1111122 
LUMCON,ioos:station:LUMCON:101:1,2009-03-12T07:00:00Z,29.2533,-90.6633,21.18,1111122 
LUMCON,ioos:station:LUMCON:101:1,2009-03-12T08:00:00Z,29.2533,-90.6633,20.97,1111122 
LUMCON,ioos:station:LUMCON:101:1,2009-03-12T09:00:00Z,29.2533,-90.6633,21.06,1111122 
LUMCON,ioos:station:LUMCON:101:1,2009-03-12T10:00:00Z,29.2533,-90.6633,20.85,1111122 
LUMCON,ioos:station:LUMCON:101:1,2009-03-12T11:00:00Z,29.2533,-90.6633,20.37,1111122 
LUMCON,ioos:station:LUMCON:101:1,2009-03-12T12:00:00Z,29.2533,-90.6633,20.01,1111122 
LUMCON,ioos:station:LUMCON:101:1,2009-03-12T13:00:00Z,29.2533,-90.6633,19.8,1111122 
LUMCON,ioos:station:LUMCON:101:1,2009-03-12T14:00:00Z,29.2533,-90.6633,20.75,1111122 